www.pogodaiklimat.ru

Погода и климат >> Архив погоды >> Таджикистан >> Исанбай


ПОГОДА в Исанбай

  • Прогноз погоды в Исанбай
  • Монитор погоды в Исанбай

АРХИВ ПОГОДЫ в Исанбай

Время (UTC), дата Ветер
(напр.,м/с)
 
Видим.   Явления Облачность Т
(С)
Тd
(С)
f
(%)
Тe
(С)
Тes
(С)
Комфортность P
(гПа)
Po
(гПа)
Тmin
(С)
Tmax
(С)
R
(мм)
R24
(мм)
S
(см)
00 14.06 СВ 5 50 км 8/0
[Ci sp]
+18.6 +10.4 59 +19 +19 1005.4 942.0
03 14.06 С 3 50 км 6/0
[Ci]
+23.8 +10.6 43 +25 +30 комфорт 1005.0 942.7 +18.2
06 14.06 ЮЗ 4 50 км 8/1 1000 м
[Cu hum Ci sp]
+31.9 +8.1 23 +31 +40 жарко 1002.8 942.3
09 14.06 Ю 2 50 км 8/4 1000 м
[Cu med, cong Ci sp]
+34.9 +6.2 17 +33 +42 жарко 1001.8 941.8
12 14.06 Ю 2 50 км 10/3 1000 м
[Cu med, cong Ci sp]
+35.3 +6.4 17 +33 +36 жарко 1001.2 941.3
15 14.06 Ю 1 50 км 1/0
[Ac trans]
+30.2 +6.2 22 +29 +29 жарко 1002.5 941.6 +36.0
18 14.06 СВ 1 н/о ясно +21.7 +10.9 50 +24 +24 комфорт 1004.7 942.1
21 14.06 СВ 4 н/о ясно +20.5 +10.6 53 +22 +22 комфорт 1005.6 942.6
00 15.06 С 5 50 км 1/0
[Ac trans]
+19.6 +9.4 52 +20 +20 1005.7 942.5
03 15.06 С 3 50 км 1/0
[Ci sp]
+23.9 +8.9 38 +25 +30 комфорт 1005.9 943.6 +18.2
06 15.06 ЮЗ 1 50 км 3/3 1000 м
[Cu hum]
+31.9 +7.6 22 +31 +46 жарко 1004.1 943.4
09 15.06 З 7 50 км 9/8 1000 м
[Cb cap Ci sp]
+33.1 +6.4 19 +31 +32 жарко 1003.6 943.2
12 15.06 СВ 3 50 км 4/4 1000 м
[Cb cap]
+32.0 +8.1 23 +31 +34 жарко 1003.5 942.9
15 15.06 С 4 50 км ясно +28.0 +8.5 29 +28 +28 жарко 1005.4 943.9 +35.5
18 15.06 СВ 5 н/о ясно +24.2 +8.8 37 +25 +25 комфорт 1007.3 944.9
21 15.06 СВ 5 н/о ясно +22.8 +9.5 43 +24 +24 комфорт 1007.7 945.1
00 16.06 С 4 50 км ясно +21.1 +9.3 47 +22 +22 комфорт 1008.2 945.1
03 16.06 С 5 50 км ясно +25.4 +9.9 38 +26 +30 жарко 1007.9 945.8 +20.3
06 16.06 Ю 1 50 км 3/3 1000 м
[Cu med, cong]
+31.6 +8.0 23 +30 +46 жарко 1006.6 945.7
09 16.06 Ю 1 50 км 5/5 1000 м
[Cu med, cong]
+35.3 +7.7 18 +33 +44 жарко 1005.0 944.9
12 16.06 штиль 0 50 км 4/4 1000 м
[Cu med, cong]
+35.9 +7.6 18 +34 +39 очень
жарко
1003.5 943.5
15 16.06 Ю 1 50 км 1/0
[Ac trans]
+29.1 +11.2 33 +30 +30 жарко 1004.5 943.3 +36.8
18 16.06 С 1 н/о ясно +23.8 +10.6 43 +25 +25 комфорт 1006.1 943.8
21 16.06 СВ 3 н/о ясно +22.1 +10.3 47 +24 +24 комфорт 1006.3 943.5
00 17.06 С 3 50 км ясно +19.9 +9.4 51 +21 +21 комфорт 1006.3 943.2
03 17.06 С 1 50 км ясно +26.1 +10.9 39 +27 +35 жарко 1005.5 943.6 +19.1
06 17.06 ЮЗ 1 50 км 1/1 1000 м
[Cu med, cong]
+32.9 +7.3 20 +31 +51 опасность
солнечного
удара
1003.7 943.2
09 17.06 Ю 4 50 км 4/4 1000 м
[Cu med, cong]
+36.2 +6.2 16 +34 +41 очень
жарко
1002.3 942.5
12 17.06 З 5 50 км 1/1 1000 м
[Cu med, cong]
+35.7 +6.2 16 +33 +36 жарко 1000.7 940.9
15 17.06 З 1 50 км ясно +32.6 +7.7 21 +31 +31 жарко 1000.9 940.5 +36.9
18 17.06 СВ 1 н/о ясно +23.6 +8.6 38 +24 +24 комфорт 1002.9 940.7
21 17.06 СВ 2 н/о ясно +21.3 +9.5 47 +23 +23 комфорт 1004.1 941.4
00 18.06 СВ 4 50 км ясно +19.7 +9.5 52 +21 +21 комфорт 1004.2 941.1
03 18.06 штиль 0 50 км ясно +24.8 +11.9 44 +26 +35 жарко 1004.3 942.3 +17.8
06 18.06 ЮЗ 1 50 км 1/1 1000 м
[Cu med, cong]
+31.9 +5.6 19 +30 +50 жарко 1002.8 942.2
09 18.06 СЗ 4 50 км 3/3 1000 м
[Cu med, cong]
+35.3 +2.3 13 +32 +41 жарко 1001.6 941.6
12 18.06 ЮЗ 1 50 км 3/3 1000 м
[Sc diur, vesp]
+35.7 +4.1 14 +33 +37 жарко 999.3 939.5
15 18.06 ЮЗ 1 50 км ясно +30.5 +11.2 30 +31 +31 жарко 1000.5 939.8 +36.4
18 18.06 СВ 1 н/о ясно +24.0 +8.2 36 +24 +24 комфорт 1002.5 940.4
21 18.06 СВ 2 н/о ясно +22.3 +8.5 41 +24 +24 комфорт 1003.4 940.8
00 19.06 СВ 1 50 км ясно +19.7 +5.8 40 +21 +21 комфорт 1004.2 941.1
03 19.06 З 1 50 км 5/0
[Ci sp]
+23.9 +11.5 46 +25 +32 комфорт 1004.0 941.8 +18.3
06 19.06 З 2 50 км 4/1 1000 м
[Cu hum Ci fib]
+32.9 +6.4 19 +31 +47 жарко 1001.7 941.3
09 19.06 Ю 2 50 км 8/3 1000 м
[Cu med, cong Ci]
+34.8 +5.6 16 +32 +43 жарко 1000.9 940.9
12 19.06 З 1 50 км 8/1 1000 м
[Cu hum Ci sp]
+35.3 +6.4 17 +33 +38 жарко 999.2 939.4
15 19.06 С 1 50 км 3/1 1000 м
[Sc diur, vesp Ci fib]
+30.0 +10.4 30 +30 +30 жарко 1000.4 939.6 +36.7
18 19.06 штиль 0 н/о 4/0
[Ci sp]
+24.0 +11.2 45 +25 +25 комфорт 1002.6 940.5
21 19.06 СВ 4 н/о ясно +22.3 +11.4 50 +24 +24 комфорт 1003.2 940.7
00 20.06 СВ 5 50 км 1/0
[Ac lent]
+20.6 +10.0 51 +22 +22 комфорт 1004.1 941.2
03 20.06 Ю 2 50 км ясно +24.2 +10.7 43 +25 +32 комфорт 1005.2 943.0 +20.2
06 20.06 ЮЗ 3 50 км ясно +31.9 +8.8 24 +31 +47 жарко 1003.4 942.8
09 20.06 ЮЗ 3 50 км 3/3 1000 м
[Cu med, cong]
+35.3 +9.2 20 +34 +45 очень
жарко
1001.9 942.1
12 20.06 ЮЗ 4 50 км 1/1 1000 м
[Cu med, cong]
+35.8 +7.4 17 +34 +37 очень
жарко
999.8 940.1
15 20.06 Ю 2 50 км ясно +30.1 +12.0 33 +31 +31 жарко 1001.6 940.8 +36.6
18 20.06 СВ 3 н/о ясно +24.8 +8.2 35 +25 +25 комфорт 1003.8 941.7

 

Местоположение метеостанции Исанбай (Таджикистан): широта 37.97 долгота 68.65 высота над уровнем моря 640 м.

В архиве по умолчанию представлена погода в Исанбай за последнюю неделю. Архивные данные за месяц целиком и за предыдущие месяцы, начиная с января 2011 года, Вы можете получить, выбрав интересующий диапазон дат из раскрывающегося списка и нажав кнопку "Ввод!".


*Определитесь, кто Вы:
робот инопланетянин человек

Внимание! Время в таблицах - всемирное. Для получения местного времени необходимо прибавить поправку, которая равна 5 ч.

Смотрите также архив погоды в соседних городах и на ближайших метеорологических станциях:

Погода в Ганжине (Таджикистан) (7 км)
Погода в Курган-Тюбе (Таджикистан) (20 км)
Погода в Дангаре (Таджикистан) (60 км)
Погода в Душанбе (Таджикистан) (66 км)
Погода в Денау (Сухрандарьинская область, Узбекистан) (74 км)
Погода в Шурчи (Сухрандарьинская область, Узбекистан) (75 км)
Погода в Пархаре (Таджикистан) (84 км)
Погода в Санглоке (Таджикистан) (88 км)
Погода в Пьяндже (Таджикистан) (91 км)
Погода в Кулябе (Таджикистан) (99 км)

Пояснения к столбцам:

Ветер - указаны скорость ветра в м/с - средняя за 10 мин, порывы в срок и между сроками (в фигурных скобках) и направление, откуда дует ветер: С - северный, СВ - северо-восточный, В - восточный, ЮВ - юго-восточный, Ю - южный, ЮЗ - юго-западный, З - западный, СЗ - северо-западный.
Видимость - горизонтальная дальность видимости в метрах или километрах. При видимости от 1 до 10 км при отсутствии осадков обычно наблюдается дымка, при ухудшении видимости до 1 км и менее - туман. В сухую погоду видимость может ухудшаться дымом, пылью или мглою.
Явления - указаны атмосферные явления, наблюдавшиеся в срок или в последний час перед сроком; фигурными скобками обозначены явления, наблюдавшиеся между сроками (за 1-3 часа до срока); квадратными скобками обозначены град или гололедные отложения с указанием их диаметра в мм.
Облачность - указаны через наклонную черту общая и нижняя облачность в баллах и высота нижней границы облаков в метрах; квадратными скобками обозначены формы облаков: Ci - перистые, Cs - перисто-слоистые, Cc - перисто-кучевые, Ac - высококучевые, As - высокослоистые, Sc - слоисто-кучевые, Ns - слоисто-дождевые, Cu - кучевые, Cb - кучево-дождевые. Подробнее классификацию облаков см. в Атласе облаков (PDF).
T - Температура воздуха - температура, измеренная на высоте 2 м над землей.
Td - Температура точки росы - температура, при понижении до которой содержащийся в воздухе водяной пар достигнет насыщения.
f - Относительная влажность воздуха - влажноcть воздуха, измеренная на высоте 2 м над землей.
Te - Эффективная температура - температура, которую ощущает одетый по сезону человек в тени. Характеристика душности погоды. При расчете учитывается влияние влажности воздуха и скорости ветра на теплоощущения человека.
Tes - Эффективная температура на солнце - температура, которую ощущает человек, с поправкой на солнечный нагрев. Характеристика знойности погоды. Зависит от высоты солнца над горизонтом, облачности и скорости ветра. Ночью, в пасмурную погоду, а также при ветре 12 м/с и более поправка равна нулю.
P - Атмосферное давление - приведенное к уровню моря атмосферное давление.
Po - Атмосферное давление - измеренное на уровне метеостанции атмосферное давление.
Tmin - Минимальная температура - минимум температуры воздуха на высоте 2 м над землей.
Tmax - Максимальная температура - максимум температуры воздуха на высоте 2 м над землей.
R - Количество осадков - Количество выпавших осадков за период времени, мм. При наведении курсора мыши на число - период времени, за который выпало указанное количество осадков.
R24 - Количество осадков - Количество выпавших осадков за 24 часа, мм.
S - Снежный покров - Высота снежного покрова, см. При наведении курсора мыши на число - состояние снежного покрова и степень покрытия местности в баллах.